Time,TemperatureF,DewpointF,PressureIn,WindDirection,WindDirectionDegrees,WindSpeedMPH,WindSpeedGustMPH,Humidity,HourlyPrecipIn,Conditions,Clouds,dailyrainin,SoftwareType,DateUTC
2013-04-22 00:00:00,46.4,33.7,30.21,SSE,157,10.0,23.0,61,0.00,,,-99.99,WeatherLink 5.6,2013-04-22 04:00:00,
2013-04-22 00:30:00,46.1,33.8,30.20,SSE,157,9.0,19.0,62,0.00,,,-99.99,WeatherLink 5.6,2013-04-22 04:30:00,
2013-04-22 01:00:00,45.5,33.6,30.19,SSE,157,10.0,22.0,63,0.00,,,-99.99,WeatherLink 5.6,2013-04-22 05:00:00,
2013-04-22 01:30:00,45.3,33.8,30.19,SSE,157,9.0,21.0,64,0.00,,,-99.99,WeatherLink 5.6,2013-04-22 05:30:00,
2013-04-22 02:00:00,44.7,34.0,30.19,SSE,157,6.0,18.0,66,0.00,,,-99.99,WeatherLink 5.6,2013-04-22 06:00:00,
2013-04-22 02:30:00,43.4,33.5,30.18,SE,135,2.0,13.0,68,0.00,,,-99.99,WeatherLink 5.6,2013-04-22 06:30:00,
2013-04-22 03:00:00,43.2,33.3,30.17,SSE,157,3.0,10.0,68,0.00,,,-99.99,WeatherLink 5.6,2013-04-22 07:00:00,
2013-04-22 03:30:00,42.1,33.4,30.17,SE,135,0.0,6.0,71,0.00,,,-99.99,WeatherLink 5.6,2013-04-22 07:30:00,
2013-04-22 04:00:00,41.6,33.2,30.17,SSE,157,1.0,6.0,72,0.00,,,-99.99,WeatherLink 5.6,2013-04-22 08:00:00,
2013-04-22 04:30:00,40.7,33.4,30.17,SSE,157,1.0,5.0,75,0.00,,,-99.99,WeatherLink 5.6,2013-04-22 08:30:00,
2013-04-22 05:00:00,40.6,33.6,30.17,SSE,157,2.0,10.0,76,0.00,,,-99.99,WeatherLink 5.6,2013-04-22 09:00:00,
2013-04-22 05:30:00,40.3,33.3,30.18,SSE,157,3.0,12.0,76,0.00,,,-99.99,WeatherLink 5.6,2013-04-22 09:30:00,
2013-04-22 06:00:00,39.8,33.5,30.18,SSE,157,2.0,8.0,78,0.00,,,-99.99,WeatherLink 5.6,2013-04-22 10:00:00,
2013-04-22 06:30:00,39.3,33.3,30.19,SSE,157,3.0,10.0,79,0.00,,,-99.99,WeatherLink 5.6,2013-04-22 10:30:00,
2013-04-22 07:00:00,39.5,33.5,30.20,SSE,157,3.0,10.0,79,0.00,,,-99.99,WeatherLink 5.6,2013-04-22 11:00:00,
2013-04-22 07:30:00,40.5,33.9,30.20,SSE,157,3.0,10.0,77,0.00,,,-99.99,WeatherLink 5.6,2013-04-22 11:30:00,
2013-04-22 08:00:00,42.2,34.8,30.21,SE,135,1.0,6.0,75,0.00,,,-99.99,WeatherLink 5.6,2013-04-22 12:00:00,
2013-04-22 08:30:00,43.2,35.1,30.22,SE,135,3.0,10.0,73,0.00,,,-99.99,WeatherLink 5.6,2013-04-22 12:30:00,
2013-04-22 09:00:00,44.7,35.5,30.22,SE,135,5.0,15.0,70,0.00,,,-99.99,WeatherLink 5.6,2013-04-22 13:00:00,
2013-04-22 09:30:00,45.9,35.9,30.23,SE,135,4.0,13.0,68,0.00,,,-99.99,WeatherLink 5.6,2013-04-22 13:30:00,
2013-04-22 10:00:00,47.7,37.7,30.21,SE,135,4.0,10.0,68,0.00,,,-99.99,WeatherLink 5.6,2013-04-22 14:00:00,
2013-04-22 10:30:00,49.0,37.3,30.21,SE,135,3.0,9.0,64,0.00,,,-99.99,WeatherLink 5.6,2013-04-22 14:30:00,
2013-04-22 11:00:00,51.3,38.3,30.20,SE,135,2.0,6.0,61,0.00,,,-99.99,WeatherLink 5.6,2013-04-22 15:00:00,
2013-04-22 11:30:00,52.6,40.8,30.19,SE,135,1.0,7.0,64,0.00,,,-99.99,WeatherLink 5.6,2013-04-22 15:30:00,
2013-04-22 12:00:00,54.8,38.9,30.17,SE,135,1.0,9.0,55,0.00,,,-99.99,WeatherLink 5.6,2013-04-22 16:00:00,
2013-04-22 12:30:00,56.1,43.7,30.15,SE,135,1.0,7.0,63,0.00,,,-99.99,WeatherLink 5.6,2013-04-22 16:30:00,
2013-04-22 13:00:00,56.7,39.7,30.13,ESE,112,2.0,9.0,53,0.00,,,-99.99,WeatherLink 5.6,2013-04-22 17:00:00,
2013-04-22 13:30:00,57.3,37.8,30.12,NNW,337,1.0,10.0,48,0.00,,,-99.99,WeatherLink 5.6,2013-04-22 17:30:00,
2013-04-22 14:00:00,59.5,40.3,30.10,NW,315,1.0,11.0,49,0.00,,,-99.99,WeatherLink 5.6,2013-04-22 18:00:00,
2013-04-22 14:30:00,59.0,39.9,30.10,SE,135,3.0,15.0,49,0.00,,,-99.99,WeatherLink 5.6,2013-04-22 18:30:00,
2013-04-22 15:00:00,60.2,39.3,30.09,SW,225,1.0,5.0,46,0.00,,,-99.99,WeatherLink 5.6,2013-04-22 19:00:00,
2013-04-22 15:30:00,60.4,38.9,30.08,NNW,337,1.0,7.0,45,0.00,,,-99.99,WeatherLink 5.6,2013-04-22 19:30:00,
2013-04-22 16:00:00,60.5,40.7,30.06,South,180,1.0,12.0,48,0.00,,,-99.99,WeatherLink 5.6,2013-04-22 20:00:00,
2013-04-22 16:30:00,61.6,40.0,30.05,SE,135,2.0,8.0,45,0.00,,,-99.99,WeatherLink 5.6,2013-04-22 20:30:00,
2013-04-22 17:00:00,61.4,40.4,30.05,SE,135,2.0,7.0,46,0.00,,,-99.99,WeatherLink 5.6,2013-04-22 21:00:00,
2013-04-22 17:30:00,61.1,37.8,30.05,SSE,157,3.0,14.0,42,0.00,,,-99.99,WeatherLink 5.6,2013-04-22 21:30:00,
2013-04-22 18:00:00,60.2,37.0,30.05,SSE,157,4.0,13.0,42,0.00,,,-99.99,WeatherLink 5.6,2013-04-22 22:00:00,
2013-04-22 18:30:00,59.9,37.3,30.05,SSE,157,2.0,7.0,43,0.00,,,-99.99,WeatherLink 5.6,2013-04-22 22:30:00,
2013-04-22 19:00:00,59.0,37.1,30.05,SSE,157,2.0,9.0,44,0.00,,,-99.99,WeatherLink 5.6,2013-04-22 23:00:00,
2013-04-22 19:30:00,58.2,36.4,30.04,SE,135,3.0,10.0,44,0.00,,,-99.99,WeatherLink 5.6,2013-04-22 23:30:00,
2013-04-22 20:00:00,57.1,35.9,30.05,SE,135,2.0,10.0,45,0.00,,,-99.99,WeatherLink 5.6,2013-04-23 00:00:00,
2013-04-22 20:30:00,56.5,34.8,30.05,SE,135,2.0,7.0,44,0.00,,,-99.99,WeatherLink 5.6,2013-04-23 00:30:00,
2013-04-22 21:00:00,56.0,34.9,30.05,SE,135,2.0,9.0,45,0.00,,,-99.99,WeatherLink 5.6,2013-04-23 01:00:00,
2013-04-22 21:30:00,54.6,33.7,30.05,ESE,112,4.0,12.0,45,0.00,,,-99.99,WeatherLink 5.6,2013-04-23 01:30:00,
2013-04-22 22:00:00,53.5,33.2,30.05,SE,135,5.0,19.0,46,0.00,,,-99.99,WeatherLink 5.6,2013-04-23 02:00:00,
2013-04-22 22:30:00,52.1,33.0,30.05,SE,135,6.0,17.0,48,0.00,,,-99.99,WeatherLink 5.6,2013-04-23 02:30:00,
2013-04-22 23:00:00,51.1,32.1,30.05,SE,135,6.0,19.0,48,0.00,,,-99.99,WeatherLink 5.6,2013-04-23 03:00:00,
2013-04-22 23:30:00,50.2,31.2,30.04,SE,135,7.0,23.0,48,0.00,,,-99.99,WeatherLink 5.6,2013-04-23 03:30:00,